Content
SEND FEEDBACK

Daily
Averages
Monthly
Summary
United States of America

ANDERSON, CALIFORNIA


Home > North America > United States > California
Elevation: 500 feet     Latitude: 40 30N     Longitude: 122 22W

WEATHER
 
SELECT A DAY
Number of Records: 192,013;   Date Range: 1/1/95 - 12/26/14
 
SHARE

PRINT THIS DATA

[ ← Previous Day ]
WEATHER ALMANAC - AUGUST 18, 2014
[ Next Day → ]
[ °C ]   °F
Weather ElementAverageHighLow
Temperature81.1 °F99 °F (2:53 pm)61 °F (5:53 am)
Dewpoint37.6 °F46.9 °F (1:53 am)28.4 °F (3:53 pm)
Humidity24.2 %45 % (5:53 am)8 % (6:53 pm)
Barometer29.77 in29.84 in (5:53 am)29.67 in (6:53 pm)
Wind Speed3.7 mph12.7 mph (6:53 pm)
Wind Gust16.1 mph (2:53 pm)
Weather ElementAverage
Visibility10 mi
Wind DirectionENE (62.1 °)

Weather ElementTotal
Precipitation---
Cooling Degree Days15 (Base 65)
Growing Degree Days30 (Base 50)
Averaged from 24 records on August 18, 2014
WEATHER CONDITIONS BREAKOUT
WIND DIRECTION BREAKOUT
WEATHER BY HOUR - AUGUST 18, 2014
[ °C ]   °F
Local TimeTemperatureDewpointHumidityBarometerVisibilityWind DirectionWind SpeedGust SpeedPrecipitationEventsConditions
12:53 AM73.0 °F39.0 °F29 %29.83 in10.0 miNNW (340°)3.5 mphClear
1:53 AM69.1 °F36.0 °F30 %29.83 in10.0 miCalmClear
2:53 AM66.9 °F37.0 °F33 %29.82 in10.0 miNorth (10°)5.8 mphClear
3:53 AM64.9 °F37.9 °F37 %29.83 in10.0 miCalmClear
4:53 AM64.0 °F39.9 °F41 %29.83 in10.0 miCalmClear
5:53 AM61.0 °F37.9 °F42 %29.83 in10.0 miCalmClear
6:53 AM63.0 °F41.0 °F45 %29.83 in10.0 miCalmClear
7:53 AM68.0 °F41.0 °F37 %29.84 in10.0 miCalmClear
8:53 AM75.9 °F37.0 °F24 %29.83 in10.0 miCalmClear
9:53 AM82.0 °F35.1 °F18 %29.82 in10.0 miCalmClear
10:53 AM87.1 °F36.0 °F16 %29.81 in10.0 miCalmClear
11:53 AM90.0 °F39.9 °F17 %29.78 in10.0 miCalmClear
12:53 PM93.0 °F39.0 °F15 %29.77 in10.0 miNorthClear
1:53 PM95.0 °F28.9 °F10 %29.75 in10.0 miVariable6.9 mphClear
2:53 PM97.0 °F32.0 °F10 %29.72 in10.0 miSSE (150°)12.7 mph16.1 mphClear
3:53 PM98.6 °F28.4 °F8 %29.72 in10.0 miVariable5.8 mph16.1 mphClear
4:53 PM99.0 °F28.9 °F8 %29.68 in10.0 miSE (140°)8.1 mphClear
5:53 PM98.1 °F32.0 °F10 %29.68 in10.0 miSouth (170°)12.7 mphClear
6:53 PM96.1 °F32.0 °F10 %29.67 in10.0 miSSE (160°)10.4 mphClear
7:53 PM89.1 °F41.0 °F19 %29.68 in10.0 miSSE (150°)6.9 mphClear
8:53 PM82.4 °F44.6 °F26 %29.71 in10.0 miSSE (160°)5.8 mphClear
9:53 PM82.0 °F46.9 °F29 %29.70 in10.0 miSouth (190°)3.5 mphClear
10:53 PM78.1 °F46.9 °F33 %29.72 in10.0 miNNE (20°)3.5 mphClear
11:53 PM73.9 °F44.1 °F34 %29.73 in10.0 miCalmClear
Hourly data recorded from KRDD, located miles away from Anderson, California







STORIES FROM OUR PARTNERS